owner,sensor,date,latitude,longitude,air_pressure(mBar),qcFlag 
TABS,ioos:station:wmo:42047:1,2011-06-01T00:00:00Z,27.8966,-93.5973,1020.17,11111222 
TABS,ioos:station:wmo:42047:1,2011-06-01T00:30:00Z,27.8966,-93.5973,1020.29,11111222 
TABS,ioos:station:wmo:42047:1,2011-06-01T01:00:00Z,27.8966,-93.5973,1020.43,11111222 
TABS,ioos:station:wmo:42047:1,2011-06-01T01:30:00Z,27.8966,-93.5973,1020.47,11111222 
TABS,ioos:station:wmo:42047:1,2011-06-01T02:00:00Z,27.8966,-93.5973,1020.7,11111222 
TABS,ioos:station:wmo:42047:1,2011-06-01T02:30:00Z,27.8966,-93.5973,1020.96,11111222 
TABS,ioos:station:wmo:42047:1,2011-06-01T03:00:00Z,27.8966,-93.5973,1021.23,11111222 
TABS,ioos:station:wmo:42047:1,2011-06-01T03:30:00Z,27.8966,-93.5973,1021.51,11111222 
TABS,ioos:station:wmo:42047:1,2011-06-01T04:00:00Z,27.8966,-93.5973,1021.62,11111222 
TABS,ioos:station:wmo:42047:1,2011-06-01T04:30:00Z,27.8966,-93.5973,1021.36,11111222 
TABS,ioos:station:wmo:42047:1,2011-06-01T05:00:00Z,27.8966,-93.5973,1021.36,11111222 
TABS,ioos:station:wmo:42047:1,2011-06-01T05:30:00Z,27.8966,-93.5973,1021.21,11111222 
TABS,ioos:station:wmo:42047:1,2011-06-01T06:00:00Z,27.8966,-93.5973,1021.13,11111222 
TABS,ioos:station:wmo:42047:1,2011-06-01T06:30:00Z,27.8966,-93.5973,1020.9,11111222 
TABS,ioos:station:wmo:42047:1,2011-06-01T07:00:00Z,27.8966,-93.5973,1020.75,11111222 
TABS,ioos:station:wmo:42047:1,2011-06-01T07:30:00Z,27.8966,-93.5973,1020.86,11111222 
TABS,ioos:station:wmo:42047:1,2011-06-01T08:00:00Z,27.8966,-93.5973,1020.7,11111222 
TABS,ioos:station:wmo:42047:1,2011-06-01T08:30:00Z,27.8966,-93.5973,1020.83,11111222 
TABS,ioos:station:wmo:42047:1,2011-06-01T09:00:00Z,27.8966,-93.5973,1020.9,11111222 
TABS,ioos:station:wmo:42047:1,2011-06-01T09:30:00Z,27.8966,-93.5973,1020.99,11111222 
TABS,ioos:station:wmo:42047:1,2011-06-01T10:00:00Z,27.8966,-93.5973,1020.93,11111222 
TABS,ioos:station:wmo:42047:1,2011-06-01T10:30:00Z,27.8966,-93.5973,1021.13,11111222 
TABS,ioos:station:wmo:42047:1,2011-06-01T11:00:00Z,27.8966,-93.5973,1021.21,11111222 
TABS,ioos:station:wmo:42047:1,2011-06-01T11:30:00Z,27.8966,-93.5973,1021.31,11111222 
TABS,ioos:station:wmo:42047:1,2011-06-01T12:00:00Z,27.8966,-93.5973,1021.65,11111222 
TABS,ioos:station:wmo:42047:1,2011-06-01T12:30:00Z,27.8966,-93.5973,1021.71,11111222 
TABS,ioos:station:wmo:42047:1,2011-06-01T13:00:00Z,27.8966,-93.5973,1021.86,11111222 
TABS,ioos:station:wmo:42047:1,2011-06-01T13:30:00Z,27.8966,-93.5973,1022.18,11111222 
TABS,ioos:station:wmo:42047:1,2011-06-01T14:00:00Z,27.8966,-93.5973,1022.4,11111222 
TABS,ioos:station:wmo:42047:1,2011-06-01T14:30:00Z,27.8966,-93.5973,1022.43,11111222 
TABS,ioos:station:wmo:42047:1,2011-06-01T15:00:00Z,27.8966,-93.5973,1022.65,11111222 
TABS,ioos:station:wmo:42047:1,2011-06-01T15:30:00Z,27.8966,-93.5973,1022.24,11111222 
TABS,ioos:station:wmo:42047:1,2011-06-01T16:00:00Z,27.8966,-93.5973,1022.26,11111222 
TABS,ioos:station:wmo:42047:1,2011-06-01T16:30:00Z,27.8966,-93.5973,1022.44,11111222 
TABS,ioos:station:wmo:42047:1,2011-06-01T17:00:00Z,27.8966,-93.5973,1022.43,11111222 
TABS,ioos:station:wmo:42047:1,2011-06-01T17:30:00Z,27.8966,-93.5973,1022.04,11111222 
TABS,ioos:station:wmo:42047:1,2011-06-01T18:00:00Z,27.8966,-93.5973,1021.93,11111222 
TABS,ioos:station:wmo:42047:1,2011-06-01T18:30:00Z,27.8966,-93.5973,1021.59,11111222 
TABS,ioos:station:wmo:42047:1,2011-06-01T19:00:00Z,27.8966,-93.5973,1021.22,11111222 
TABS,ioos:station:wmo:42047:1,2011-06-01T19:30:00Z,27.8966,-93.5973,1020.83,11111222 
TABS,ioos:station:wmo:42047:1,2011-06-01T20:00:00Z,27.8966,-93.5973,1020.49,11111222 
TABS,ioos:station:wmo:42047:1,2011-06-01T20:30:00Z,27.8966,-93.5973,1020.41,11111222 
TABS,ioos:station:wmo:42047:1,2011-06-01T21:00:00Z,27.8966,-93.5973,1019.97,11111222 
TABS,ioos:station:wmo:42047:1,2011-06-01T21:30:00Z,27.8966,-93.5973,1019.61,11111222 
TABS,ioos:station:wmo:42047:1,2011-06-01T22:00:00Z,27.8966,-93.5973,1019.5,11111222 
TABS,ioos:station:wmo:42047:1,2011-06-01T22:30:00Z,27.8966,-93.5973,1019.07,11111222 
TABS,ioos:station:wmo:42047:1,2011-06-01T23:00:00Z,27.8966,-93.5973,1018.81,11111222 
TABS,ioos:station:wmo:42047:1,2011-06-01T23:30:00Z,27.8966,-93.5973,1018.63,11111222 
TABS,ioos:station:wmo:42047:1,2011-06-02T00:00:00Z,27.8966,-93.5973,1018.46,11111222 
TABS,ioos:station:wmo:42047:1,2011-06-02T00:30:00Z,27.8966,-93.5973,1018.47,11111222 
TABS,ioos:station:wmo:42047:1,2011-06-02T01:00:00Z,27.8966,-93.5973,1018.55,11111222 
TABS,ioos:station:wmo:42047:1,2011-06-02T01:30:00Z,27.8966,-93.5973,1018.53,11111222 
TABS,ioos:station:wmo:42047:1,2011-06-02T02:00:00Z,27.8966,-93.5973,1018.62,11111222 
TABS,ioos:station:wmo:42047:1,2011-06-02T02:30:00Z,27.8966,-93.5973,1018.71,11111222 
TABS,ioos:station:wmo:42047:1,2011-06-02T03:00:00Z,27.8966,-93.5973,1018.64,11111222 
TABS,ioos:station:wmo:42047:1,2011-06-02T03:30:00Z,27.8966,-93.5973,1018.62,11111222 
TABS,ioos:station:wmo:42047:1,2011-06-02T04:00:00Z,27.8966,-93.5973,1018.46,11111222 
TABS,ioos:station:wmo:42047:1,2011-06-02T04:30:00Z,27.8966,-93.5973,1018.73,11111222 
TABS,ioos:station:wmo:42047:1,2011-06-02T05:00:00Z,27.8966,-93.5973,1018.42,11111222 
TABS,ioos:station:wmo:42047:1,2011-06-02T05:30:00Z,27.8966,-93.5973,1018.11,11111222 
TABS,ioos:station:wmo:42047:1,2011-06-02T06:00:00Z,27.8966,-93.5973,1017.94,11111222 
TABS,ioos:station:wmo:42047:1,2011-06-02T06:30:00Z,27.8966,-93.5973,1017.68,11111222 
TABS,ioos:station:wmo:42047:1,2011-06-02T07:00:00Z,27.8966,-93.5973,1017.45,11111222 
TABS,ioos:station:wmo:42047:1,2011-06-02T07:30:00Z,27.8966,-93.5973,1017.27,11111222 
TABS,ioos:station:wmo:42047:1,2011-06-02T08:00:00Z,27.8966,-93.5973,1017.09,11111222 
TABS,ioos:station:wmo:42047:1,2011-06-02T08:30:00Z,27.8966,-93.5973,1016.83,11111222 
TABS,ioos:station:wmo:42047:1,2011-06-02T09:00:00Z,27.8966,-93.5973,1017.02,11111222 
TABS,ioos:station:wmo:42047:1,2011-06-02T09:30:00Z,27.8966,-93.5973,1016.81,11111222 
TABS,ioos:station:wmo:42047:1,2011-06-02T10:00:00Z,27.8966,-93.5973,1017.06,11111222 
TABS,ioos:station:wmo:42047:1,2011-06-02T10:30:00Z,27.8966,-93.5973,1017.0,11111222 
TABS,ioos:station:wmo:42047:1,2011-06-02T11:00:00Z,27.8966,-93.5973,1017.57,11111222 
TABS,ioos:station:wmo:42047:1,2011-06-02T11:30:00Z,27.8966,-93.5973,1017.7,11111222 
TABS,ioos:station:wmo:42047:1,2011-06-02T12:00:00Z,27.8966,-93.5973,1018.33,11111222 
TABS,ioos:station:wmo:42047:1,2011-06-02T12:30:00Z,27.8966,-93.5973,1018.52,11111222 
TABS,ioos:station:wmo:42047:1,2011-06-02T13:00:00Z,27.8966,-93.5973,1019.0,11111222 
TABS,ioos:station:wmo:42047:1,2011-06-02T13:30:00Z,27.8966,-93.5973,1018.73,11111222 
TABS,ioos:station:wmo:42047:1,2011-06-02T14:00:00Z,27.8966,-93.5973,1017.5,11111222 
TABS,ioos:station:wmo:42047:1,2011-06-02T14:30:00Z,27.8966,-93.5973,1017.58,11111222 
TABS,ioos:station:wmo:42047:1,2011-06-02T15:00:00Z,27.8966,-93.5973,1017.57,11111222 
TABS,ioos:station:wmo:42047:1,2011-06-02T15:30:00Z,27.8966,-93.5973,1017.4,11111222 
TABS,ioos:station:wmo:42047:1,2011-06-02T16:00:00Z,27.8966,-93.5973,1017.22,11111222 
TABS,ioos:station:wmo:42047:1,2011-06-02T16:30:00Z,27.8966,-93.5973,1017.3,11111222 
TABS,ioos:station:wmo:42047:1,2011-06-02T17:00:00Z,27.8966,-93.5973,1016.98,11111222 
TABS,ioos:station:wmo:42047:1,2011-06-02T17:30:00Z,27.8966,-93.5973,1016.89,11111222 
TABS,ioos:station:wmo:42047:1,2011-06-02T18:00:00Z,27.8966,-93.5973,1016.59,11111222 
TABS,ioos:station:wmo:42047:1,2011-06-02T18:30:00Z,27.8966,-93.5973,1016.32,11111222 
TABS,ioos:station:wmo:42047:1,2011-06-02T19:00:00Z,27.8966,-93.5973,1015.95,11111222 
TABS,ioos:station:wmo:42047:1,2011-06-02T19:30:00Z,27.8966,-93.5973,1015.74,11111222 
TABS,ioos:station:wmo:42047:1,2011-06-02T20:00:00Z,27.8966,-93.5973,1015.38,11111222 
TABS,ioos:station:wmo:42047:1,2011-06-02T20:30:00Z,27.8966,-93.5973,1015.15,11111222 
TABS,ioos:station:wmo:42047:1,2011-06-02T21:00:00Z,27.8966,-93.5973,1014.82,11111222 
TABS,ioos:station:wmo:42047:1,2011-06-02T21:30:00Z,27.8966,-93.5973,1014.33,11111222 
TABS,ioos:station:wmo:42047:1,2011-06-02T22:00:00Z,27.8966,-93.5973,1014.06,11111222 
TABS,ioos:station:wmo:42047:1,2011-06-02T22:30:00Z,27.8966,-93.5973,1013.87,11111222 
TABS,ioos:station:wmo:42047:1,2011-06-02T23:00:00Z,27.8966,-93.5973,1013.97,11111222 
TABS,ioos:station:wmo:42047:1,2011-06-02T23:30:00Z,27.8966,-93.5973,1013.91,11111222 
TABS,ioos:station:wmo:42047:1,2011-06-03T00:00:00Z,27.8966,-93.5973,1013.81,11111222 
TABS,ioos:station:wmo:42047:1,2011-06-03T00:30:00Z,27.8966,-93.5973,1013.81,11111222 
TABS,ioos:station:wmo:42047:1,2011-06-03T01:00:00Z,27.8966,-93.5973,1013.86,11111222 
TABS,ioos:station:wmo:42047:1,2011-06-03T01:30:00Z,27.8966,-93.5973,1013.95,11111222 
TABS,ioos:station:wmo:42047:1,2011-06-03T02:00:00Z,27.8966,-93.5973,1014.03,11111222 
TABS,ioos:station:wmo:42047:1,2011-06-03T02:30:00Z,27.8966,-93.5973,1014.54,11111222 
TABS,ioos:station:wmo:42047:1,2011-06-03T03:00:00Z,27.8966,-93.5973,1015.06,11111222 
TABS,ioos:station:wmo:42047:1,2011-06-03T03:30:00Z,27.8966,-93.5973,1015.5,11111222 
TABS,ioos:station:wmo:42047:1,2011-06-03T04:00:00Z,27.8966,-93.5973,1015.5,11111222 
TABS,ioos:station:wmo:42047:1,2011-06-03T04:30:00Z,27.8966,-93.5973,1015.57,11111222 
TABS,ioos:station:wmo:42047:1,2011-06-03T05:00:00Z,27.8966,-93.5973,1015.42,11111222 
TABS,ioos:station:wmo:42047:1,2011-06-03T05:30:00Z,27.8966,-93.5973,1015.41,11111222 
TABS,ioos:station:wmo:42047:1,2011-06-03T06:00:00Z,27.8966,-93.5973,1015.31,11111222 
TABS,ioos:station:wmo:42047:1,2011-06-03T06:30:00Z,27.8966,-93.5973,1015.06,11111222 
TABS,ioos:station:wmo:42047:1,2011-06-03T07:00:00Z,27.8966,-93.5973,1014.8,11111222 
TABS,ioos:station:wmo:42047:1,2011-06-03T07:30:00Z,27.8966,-93.5973,1014.53,11111222 
TABS,ioos:station:wmo:42047:1,2011-06-03T08:00:00Z,27.8966,-93.5973,1014.38,11111222 
TABS,ioos:station:wmo:42047:1,2011-06-03T08:30:00Z,27.8966,-93.5973,1014.33,11111222 
TABS,ioos:station:wmo:42047:1,2011-06-03T09:00:00Z,27.8966,-93.5973,1014.59,11111222 
TABS,ioos:station:wmo:42047:1,2011-06-03T09:30:00Z,27.8966,-93.5973,1014.67,11111222 
TABS,ioos:station:wmo:42047:1,2011-06-03T10:00:00Z,27.8966,-93.5973,1014.75,11111222 
TABS,ioos:station:wmo:42047:1,2011-06-03T10:30:00Z,27.8966,-93.5973,1014.99,11111222 
TABS,ioos:station:wmo:42047:1,2011-06-03T11:00:00Z,27.8966,-93.5973,1015.52,11111222 
TABS,ioos:station:wmo:42047:1,2011-06-03T11:30:00Z,27.8966,-93.5973,1015.84,11111222 
TABS,ioos:station:wmo:42047:1,2011-06-03T12:00:00Z,27.8966,-93.5973,1016.03,11111222 
TABS,ioos:station:wmo:42047:1,2011-06-03T12:30:00Z,27.8966,-93.5973,1016.17,11111222 
TABS,ioos:station:wmo:42047:1,2011-06-03T13:00:00Z,27.8966,-93.5973,1016.52,11111222 
TABS,ioos:station:wmo:42047:1,2011-06-03T13:30:00Z,27.8966,-93.5973,1017.0,11111222 
TABS,ioos:station:wmo:42047:1,2011-06-03T14:00:00Z,27.8966,-93.5973,1017.06,11111222 
TABS,ioos:station:wmo:42047:1,2011-06-03T14:30:00Z,27.8966,-93.5973,1017.25,11111222 
TABS,ioos:station:wmo:42047:1,2011-06-03T15:00:00Z,27.8966,-93.5973,1017.16,11111222 
TABS,ioos:station:wmo:42047:1,2011-06-03T15:30:00Z,27.8966,-93.5973,1017.13,11111222 
TABS,ioos:station:wmo:42047:1,2011-06-03T16:00:00Z,27.8966,-93.5973,1017.18,11111222 
TABS,ioos:station:wmo:42047:1,2011-06-03T16:30:00Z,27.8966,-93.5973,1017.34,11111222 
TABS,ioos:station:wmo:42047:1,2011-06-03T17:00:00Z,27.8966,-93.5973,1017.1,11111222 
TABS,ioos:station:wmo:42047:1,2011-06-03T17:30:00Z,27.8966,-93.5973,1017.02,11111222 
TABS,ioos:station:wmo:42047:1,2011-06-03T18:00:00Z,27.8966,-93.5973,1017.0,11111222 
TABS,ioos:station:wmo:42047:1,2011-06-03T18:30:00Z,27.8966,-93.5973,1017.01,11111222 
TABS,ioos:station:wmo:42047:1,2011-06-03T19:00:00Z,27.8966,-93.5973,1016.81,11111222 
TABS,ioos:station:wmo:42047:1,2011-06-03T19:30:00Z,27.8966,-93.5973,1016.65,11111222 
TABS,ioos:station:wmo:42047:1,2011-06-03T20:00:00Z,27.8966,-93.5973,1016.5,11111222 
TABS,ioos:station:wmo:42047:1,2011-06-03T20:30:00Z,27.8966,-93.5973,1016.33,11111222 
TABS,ioos:station:wmo:42047:1,2011-06-03T21:00:00Z,27.8966,-93.5973,1016.21,11111222 
TABS,ioos:station:wmo:42047:1,2011-06-03T21:30:00Z,27.8966,-93.5973,1016.03,11111222 
TABS,ioos:station:wmo:42047:1,2011-06-03T22:00:00Z,27.8966,-93.5973,1015.91,11111222 
TABS,ioos:station:wmo:42047:1,2011-06-03T22:30:00Z,27.8966,-93.5973,1015.65,11111222 
TABS,ioos:station:wmo:42047:1,2011-06-03T23:00:00Z,27.8966,-93.5973,1015.97,11111222 
TABS,ioos:station:wmo:42047:1,2011-06-03T23:30:00Z,27.8966,-93.5973,1016.09,11111222 
TABS,ioos:station:wmo:42047:1,2011-06-04T00:00:00Z,27.8966,-93.5973,1016.34,11111222 
TABS,ioos:station:wmo:42047:1,2011-06-04T00:30:00Z,27.8966,-93.5973,1016.5,11111222 
TABS,ioos:station:wmo:42047:1,2011-06-04T01:00:00Z,27.8966,-93.5973,1016.59,11111222 
TABS,ioos:station:wmo:42047:1,2011-06-04T01:30:00Z,27.8966,-93.5973,1016.59,11111222 
TABS,ioos:station:wmo:42047:1,2011-06-04T02:00:00Z,27.8966,-93.5973,1016.79,11111222 
TABS,ioos:station:wmo:42047:1,2011-06-04T02:30:00Z,27.8966,-93.5973,1016.97,11111222 
TABS,ioos:station:wmo:42047:1,2011-06-04T03:00:00Z,27.8966,-93.5973,1017.13,11111222 
TABS,ioos:station:wmo:42047:1,2011-06-04T03:30:00Z,27.8966,-93.5973,1017.42,11111222 
TABS,ioos:station:wmo:42047:1,2011-06-04T04:00:00Z,27.8966,-93.5973,1017.69,11111222 
TABS,ioos:station:wmo:42047:1,2011-06-04T04:30:00Z,27.8966,-93.5973,1017.66,11111222 
TABS,ioos:station:wmo:42047:1,2011-06-04T05:00:00Z,27.8966,-93.5973,1017.8,11111222 
TABS,ioos:station:wmo:42047:1,2011-06-04T05:30:00Z,27.8966,-93.5973,1017.68,11111222 
TABS,ioos:station:wmo:42047:1,2011-06-04T06:00:00Z,27.8966,-93.5973,1017.54,11111222 
TABS,ioos:station:wmo:42047:1,2011-06-04T06:30:00Z,27.8966,-93.5973,1017.32,11111222 
TABS,ioos:station:wmo:42047:1,2011-06-04T07:00:00Z,27.8966,-93.5973,1017.24,11111222 
TABS,ioos:station:wmo:42047:1,2011-06-04T07:30:00Z,27.8966,-93.5973,1017.16,11111222 
TABS,ioos:station:wmo:42047:1,2011-06-04T08:00:00Z,27.8966,-93.5973,1017.07,11111222 
TABS,ioos:station:wmo:42047:1,2011-06-04T08:30:00Z,27.8966,-93.5973,1017.19,11111222 
TABS,ioos:station:wmo:42047:1,2011-06-04T09:00:00Z,27.8966,-93.5973,1017.03,11111222 
TABS,ioos:station:wmo:42047:1,2011-06-04T09:30:00Z,27.8966,-93.5973,1017.1,11111222 
TABS,ioos:station:wmo:42047:1,2011-06-04T10:00:00Z,27.8966,-93.5973,1017.17,11111222 
TABS,ioos:station:wmo:42047:1,2011-06-04T10:30:00Z,27.8966,-93.5973,1017.36,11111222 
TABS,ioos:station:wmo:42047:1,2011-06-04T11:00:00Z,27.8966,-93.5973,1017.49,11111222 
TABS,ioos:station:wmo:42047:1,2011-06-04T11:30:00Z,27.8966,-93.5973,1018.05,11111222 
TABS,ioos:station:wmo:42047:1,2011-06-04T12:00:00Z,27.8966,-93.5973,1018.4,11111222 
TABS,ioos:station:wmo:42047:1,2011-06-04T12:30:00Z,27.8966,-93.5973,1018.63,11111222 
TABS,ioos:station:wmo:42047:1,2011-06-04T13:00:00Z,27.8966,-93.5973,1019.02,11111222 
TABS,ioos:station:wmo:42047:1,2011-06-04T13:30:00Z,27.8966,-93.5973,1019.39,11111222 
TABS,ioos:station:wmo:42047:1,2011-06-04T14:00:00Z,27.8966,-93.5973,1019.57,11111222 
TABS,ioos:station:wmo:42047:1,2011-06-04T14:30:00Z,27.8966,-93.5973,1019.62,11111222 
TABS,ioos:station:wmo:42047:1,2011-06-04T15:00:00Z,27.8966,-93.5973,1019.64,11111222 
TABS,ioos:station:wmo:42047:1,2011-06-04T15:30:00Z,27.8966,-93.5973,1019.77,11111222 
TABS,ioos:station:wmo:42047:1,2011-06-04T16:00:00Z,27.8966,-93.5973,1019.8,11111222 
TABS,ioos:station:wmo:42047:1,2011-06-04T16:30:00Z,27.8966,-93.5973,1019.94,11111222 
TABS,ioos:station:wmo:42047:1,2011-06-04T17:00:00Z,27.8966,-93.5973,1019.9,11111222 
TABS,ioos:station:wmo:42047:1,2011-06-04T17:30:00Z,27.8966,-93.5973,1019.86,11111222 
TABS,ioos:station:wmo:42047:1,2011-06-04T18:00:00Z,27.8966,-93.5973,1019.65,11111222 
TABS,ioos:station:wmo:42047:1,2011-06-04T18:30:00Z,27.8966,-93.5973,1019.47,11111222 
TABS,ioos:station:wmo:42047:1,2011-06-04T19:00:00Z,27.8966,-93.5973,1019.22,11111222 
TABS,ioos:station:wmo:42047:1,2011-06-04T19:30:00Z,27.8966,-93.5973,1019.18,11111222 
TABS,ioos:station:wmo:42047:1,2011-06-04T20:00:00Z,27.8966,-93.5973,1019.07,11111222 
TABS,ioos:station:wmo:42047:1,2011-06-04T20:30:00Z,27.8966,-93.5973,1018.89,11111222 
TABS,ioos:station:wmo:42047:1,2011-06-04T21:00:00Z,27.8966,-93.5973,1018.62,11111222 
TABS,ioos:station:wmo:42047:1,2011-06-04T21:30:00Z,27.8966,-93.5973,1018.53,11111222 
TABS,ioos:station:wmo:42047:1,2011-06-04T22:00:00Z,27.8966,-93.5973,1018.43,11111222 
TABS,ioos:station:wmo:42047:1,2011-06-04T22:30:00Z,27.8966,-93.5973,1018.24,11111222 
TABS,ioos:station:wmo:42047:1,2011-06-04T23:00:00Z,27.8966,-93.5973,1018.21,11111222 
TABS,ioos:station:wmo:42047:1,2011-06-04T23:30:00Z,27.8966,-93.5973,1018.08,11111222 
TABS,ioos:station:wmo:42047:1,2011-06-05T00:00:00Z,27.8966,-93.5973,1018.27,11111222 
TABS,ioos:station:wmo:42047:1,2011-06-05T00:30:00Z,27.8966,-93.5973,1018.38,11111222 
TABS,ioos:station:wmo:42047:1,2011-06-05T01:00:00Z,27.8966,-93.5973,1018.23,11111222 
TABS,ioos:station:wmo:42047:1,2011-06-05T01:30:00Z,27.8966,-93.5973,1018.25,11111222 
TABS,ioos:station:wmo:42047:1,2011-06-05T02:00:00Z,27.8966,-93.5973,1018.57,11111222 
TABS,ioos:station:wmo:42047:1,2011-06-05T02:30:00Z,27.8966,-93.5973,1018.81,11111222 
TABS,ioos:station:wmo:42047:1,2011-06-05T03:00:00Z,27.8966,-93.5973,1019.0,11111222 
TABS,ioos:station:wmo:42047:1,2011-06-05T03:30:00Z,27.8966,-93.5973,1019.13,11111222 
TABS,ioos:station:wmo:42047:1,2011-06-05T04:00:00Z,27.8966,-93.5973,1019.04,11111222 
TABS,ioos:station:wmo:42047:1,2011-06-05T04:30:00Z,27.8966,-93.5973,1018.99,11111222 
TABS,ioos:station:wmo:42047:1,2011-06-05T05:00:00Z,27.8966,-93.5973,1018.78,11111222 
TABS,ioos:station:wmo:42047:1,2011-06-05T05:30:00Z,27.8966,-93.5973,1018.54,11111222 
TABS,ioos:station:wmo:42047:1,2011-06-05T06:00:00Z,27.8966,-93.5973,1018.54,11111222 
TABS,ioos:station:wmo:42047:1,2011-06-05T06:30:00Z,27.8966,-93.5973,1018.09,11111222 
TABS,ioos:station:wmo:42047:1,2011-06-05T07:00:00Z,27.8966,-93.5973,1017.74,11111222 
TABS,ioos:station:wmo:42047:1,2011-06-05T07:30:00Z,27.8966,-93.5973,1017.66,11111222 
TABS,ioos:station:wmo:42047:1,2011-06-05T08:00:00Z,27.8966,-93.5973,1017.56,11111222 
TABS,ioos:station:wmo:42047:1,2011-06-05T08:30:00Z,27.8966,-93.5973,1017.74,11111222 
TABS,ioos:station:wmo:42047:1,2011-06-05T09:00:00Z,27.8966,-93.5973,1017.8,11111222 
TABS,ioos:station:wmo:42047:1,2011-06-05T09:30:00Z,27.8966,-93.5973,1018.07,11111222 
TABS,ioos:station:wmo:42047:1,2011-06-05T10:00:00Z,27.8966,-93.5973,1017.91,11111222 
TABS,ioos:station:wmo:42047:1,2011-06-05T10:30:00Z,27.8966,-93.5973,1017.91,11111222 
TABS,ioos:station:wmo:42047:1,2011-06-05T11:00:00Z,27.8966,-93.5973,1018.15,11111222 
TABS,ioos:station:wmo:42047:1,2011-06-05T11:30:00Z,27.8966,-93.5973,1018.33,11111222 
TABS,ioos:station:wmo:42047:1,2011-06-05T12:00:00Z,27.8966,-93.5973,1018.57,11111222 
TABS,ioos:station:wmo:42047:1,2011-06-05T12:30:00Z,27.8966,-93.5973,1018.76,11111222 
TABS,ioos:station:wmo:42047:1,2011-06-05T13:00:00Z,27.8966,-93.5973,1018.94,11111222 
TABS,ioos:station:wmo:42047:1,2011-06-05T13:30:00Z,27.8966,-93.5973,1019.03,11111222 
TABS,ioos:station:wmo:42047:1,2011-06-05T14:00:00Z,27.8966,-93.5973,1019.14,11111222 
TABS,ioos:station:wmo:42047:1,2011-06-05T14:30:00Z,27.8966,-93.5973,1019.15,11111222 
TABS,ioos:station:wmo:42047:1,2011-06-05T15:00:00Z,27.8966,-93.5973,1018.85,11111222 
TABS,ioos:station:wmo:42047:1,2011-06-05T15:30:00Z,27.8966,-93.5973,1018.85,11111222 
TABS,ioos:station:wmo:42047:1,2011-06-05T16:00:00Z,27.8966,-93.5973,1018.57,11111222 
TABS,ioos:station:wmo:42047:1,2011-06-05T16:30:00Z,27.8966,-93.5973,1018.52,11111222 
TABS,ioos:station:wmo:42047:1,2011-06-05T17:00:00Z,27.8966,-93.5973,1018.27,11111222 
TABS,ioos:station:wmo:42047:1,2011-06-05T17:30:00Z,27.8966,-93.5973,1018.15,11111222 
TABS,ioos:station:wmo:42047:1,2011-06-05T18:00:00Z,27.8966,-93.5973,1017.84,11111222 
TABS,ioos:station:wmo:42047:1,2011-06-05T18:30:00Z,27.8966,-93.5973,1017.7,11111222 
TABS,ioos:station:wmo:42047:1,2011-06-05T19:00:00Z,27.8966,-93.5973,1017.4,11111222 
TABS,ioos:station:wmo:42047:1,2011-06-05T19:30:00Z,27.8966,-93.5973,1017.15,11111222 
TABS,ioos:station:wmo:42047:1,2011-06-05T20:00:00Z,27.8966,-93.5973,1016.77,11111222 
TABS,ioos:station:wmo:42047:1,2011-06-05T20:30:00Z,27.8966,-93.5973,1016.57,11111222 
TABS,ioos:station:wmo:42047:1,2011-06-05T21:00:00Z,27.8966,-93.5973,1016.21,11111222 
TABS,ioos:station:wmo:42047:1,2011-06-05T21:30:00Z,27.8966,-93.5973,1015.71,11111222 
TABS,ioos:station:wmo:42047:1,2011-06-05T22:00:00Z,27.8966,-93.5973,1015.44,11111222 
TABS,ioos:station:wmo:42047:1,2011-06-05T22:30:00Z,27.8966,-93.5973,1015.18,11111222 
TABS,ioos:station:wmo:42047:1,2011-06-05T23:00:00Z,27.8966,-93.5973,1015.15,11111222 
TABS,ioos:station:wmo:42047:1,2011-06-05T23:30:00Z,27.8966,-93.5973,1014.95,11111222 
TABS,ioos:station:wmo:42047:1,2011-06-06T00:00:00Z,27.8966,-93.5973,1014.89,11111222 
TABS,ioos:station:wmo:42047:1,2011-06-06T00:30:00Z,27.8966,-93.5973,1014.99,11111222 
TABS,ioos:station:wmo:42047:1,2011-06-06T01:00:00Z,27.8966,-93.5973,1015.0,11111222 
TABS,ioos:station:wmo:42047:1,2011-06-06T01:30:00Z,27.8966,-93.5973,1015.37,11111222 
TABS,ioos:station:wmo:42047:1,2011-06-06T02:00:00Z,27.8966,-93.5973,1015.62,11111222 
TABS,ioos:station:wmo:42047:1,2011-06-06T02:30:00Z,27.8966,-93.5973,1015.82,11111222 
TABS,ioos:station:wmo:42047:1,2011-06-06T03:00:00Z,27.8966,-93.5973,1015.99,11111222 
TABS,ioos:station:wmo:42047:1,2011-06-06T03:30:00Z,27.8966,-93.5973,1016.0,11111222 
TABS,ioos:station:wmo:42047:1,2011-06-06T04:00:00Z,27.8966,-93.5973,1015.7,11111222 
TABS,ioos:station:wmo:42047:1,2011-06-06T04:30:00Z,27.8966,-93.5973,1015.57,11111222 
TABS,ioos:station:wmo:42047:1,2011-06-06T05:00:00Z,27.8966,-93.5973,1015.4,11111222 
TABS,ioos:station:wmo:42047:1,2011-06-06T05:30:00Z,27.8966,-93.5973,1015.18,11111222 
TABS,ioos:station:wmo:42047:1,2011-06-06T06:00:00Z,27.8966,-93.5973,1015.0,11111222 
TABS,ioos:station:wmo:42047:1,2011-06-06T06:30:00Z,27.8966,-93.5973,1014.53,11111222 
TABS,ioos:station:wmo:42047:1,2011-06-06T07:00:00Z,27.8966,-93.5973,1014.39,11111222 
TABS,ioos:station:wmo:42047:1,2011-06-06T07:30:00Z,27.8966,-93.5973,1014.02,11111222 
TABS,ioos:station:wmo:42047:1,2011-06-06T08:00:00Z,27.8966,-93.5973,1014.14,11111222 
TABS,ioos:station:wmo:42047:1,2011-06-06T08:30:00Z,27.8966,-93.5973,1014.78,11111222 
TABS,ioos:station:wmo:42047:1,2011-06-06T09:00:00Z,27.8966,-93.5973,1014.3,11111222 
TABS,ioos:station:wmo:42047:1,2011-06-06T09:30:00Z,27.8966,-93.5973,1013.71,11111222 
TABS,ioos:station:wmo:42047:1,2011-06-06T10:00:00Z,27.8966,-93.5973,1013.16,11111222 
TABS,ioos:station:wmo:42047:1,2011-06-06T10:30:00Z,27.8966,-93.5973,1012.52,11111222 
TABS,ioos:station:wmo:42047:1,2011-06-06T11:00:00Z,27.8966,-93.5973,1013.84,11111222 
TABS,ioos:station:wmo:42047:1,2011-06-06T11:30:00Z,27.8966,-93.5973,1014.06,11111222 
TABS,ioos:station:wmo:42047:1,2011-06-06T12:00:00Z,27.8966,-93.5973,1014.26,11111222 
TABS,ioos:station:wmo:42047:1,2011-06-06T12:30:00Z,27.8966,-93.5973,1014.58,11111222 
TABS,ioos:station:wmo:42047:1,2011-06-06T13:00:00Z,27.8966,-93.5973,1014.91,11111222 
TABS,ioos:station:wmo:42047:1,2011-06-06T13:30:00Z,27.8966,-93.5973,1014.95,11111222 
TABS,ioos:station:wmo:42047:1,2011-06-06T14:00:00Z,27.8966,-93.5973,1015.0,11111222 
TABS,ioos:station:wmo:42047:1,2011-06-06T14:30:00Z,27.8966,-93.5973,1014.95,11111222 
TABS,ioos:station:wmo:42047:1,2011-06-06T15:00:00Z,27.8966,-93.5973,1014.95,11111222 
TABS,ioos:station:wmo:42047:1,2011-06-06T15:30:00Z,27.8966,-93.5973,1015.08,11111222 
TABS,ioos:station:wmo:42047:1,2011-06-06T16:00:00Z,27.8966,-93.5973,1015.14,11111222 
TABS,ioos:station:wmo:42047:1,2011-06-06T16:30:00Z,27.8966,-93.5973,1015.05,11111222 
TABS,ioos:station:wmo:42047:1,2011-06-06T17:00:00Z,27.8966,-93.5973,1014.88,11111222 
TABS,ioos:station:wmo:42047:1,2011-06-06T17:30:00Z,27.8966,-93.5973,1014.56,11111222 
TABS,ioos:station:wmo:42047:1,2011-06-06T18:00:00Z,27.8966,-93.5973,1014.49,11111222 
TABS,ioos:station:wmo:42047:1,2011-06-06T18:30:00Z,27.8966,-93.5973,1014.4,11111222 